Overview Statistics Trail Chart Weather Telemetry Raw packets
 

This is the latest recevied weather packets stored in our database for station/object K9MWD. If no packets are shown the sender has not sent any weather packets the latest 10 day(s).

<< 3 4 5 6 7 8 9 >>
Time Temp. Humidity Pressure Rain* Wind** Luminosity Snow
1788612280 24.44° C 82% 1014.4 hPa 0 mm - 28 W/m² -
1788611980 25° C 81% 1014.6 hPa 0 mm - 25 W/m² -
1788611677 24.44° C 81% 1014.2 hPa 0 mm - 27 W/m² -
1788611377 25° C 82% 1014.5 hPa 0 mm - 22 W/m² -
1788611077 24.44° C 82% 1014.4 hPa 0 mm - 18 W/m² -
1788610772 24.44° C 83% 1014.2 hPa 0 mm - 13 W/m² -
1788610468 24.44° C 83% 1014.1 hPa 0 mm - 9 W/m² -
1788610166 24.44° C 83% 1014.3 hPa 0 mm - 6 W/m² -
1788609861 24.44° C 82% 1014 hPa 0 mm - 3 W/m² -
1788609557 24.44° C 82% 1014 hPa 0 mm - 2 W/m² -
1788609256 25° C 82% 1014 hPa 0 mm - 1 W/m² -
1788608951 25° C 82% 1014 hPa 0 mm - 0 W/m² -
1788608650 25° C 81% 1014.1 hPa 0 mm - 0 W/m² -
1788608349 25° C 82% 1014 hPa 0 mm - 0 W/m² -
1788608045 25° C 82% 1014.1 hPa 0 mm - 0 W/m² -
1788607740 25° C 81% 1014.1 hPa 0 mm - 0 W/m² -
1788607435 25° C 81% 1014.2 hPa 0 mm - 0 W/m² -
1788607131 25° C 81% 1014 hPa 0 mm - 0 W/m² -
1788606831 25° C 81% 1013.9 hPa 0 mm - 0 W/m² -
1788606530 25° C 81% 1013.8 hPa 0 mm - 0 W/m² -
1788606230 25° C 81% 1013.8 hPa 0 mm - 0 W/m² -
1788605920 25° C 81% 1013.9 hPa 0 mm - 0 W/m² -
1788605619 25° C 81% 1013.8 hPa 0 mm - 0 W/m² -
1788605318 25° C 81% 1013.9 hPa 0 mm - 0 W/m² -
1788605015 25° C 80% 1013.7 hPa 0 mm - 0 W/m² -

* Rain latest hour (hover to see other rain measurements)
** Current wind speed in m/s (hover to see current wind gust speed)